Location: Mercogliano
(40.9167°N, 14.7333°E)
Time: 14:54:06
(UTC+00:00)

X-37B - Pass Details

Date: 29 November 2020
Orbit: 384 x 390 km, 45.0° (Epoch: 02 January)

Event Time Altitude Azimuth Distance (km) Brightness Sun altitude
Rises 17:44:38 0° 265° (W) 2,261 5.9 -24.1°
Reaches altitude 10° 17:46:45 10° 272° (W) 1,410 4.4 -24.5°
Enters shadow 17:48:26 27° 287° (WNW) 791 2.7 -24.8°
